Regional Weather Roundup
Issued by NWS Cleveland, OH

Home | Current Version | Previous Version | Graphics & Text | Print | Product List | Glossary On
Versions: 1 2 3 4 5 6 7 8 9 10 11 12 13 14 15 16 17 18 19 20 21 22 23 24 25 26 27 28 29 30 31 32 33 34 35 36 37 38 39 40 41 42 43 44 45 46 47 48 49 50
939
ASUS41 KCLE 041902
RWRCLE
OHIO REGIONAL WEATHER ROUNDUP
NATIONAL WEATHER SERVICE CLEVELAND, OH
200 PM EST SUN DEC 04 2016

NOTE: "FAIR" INDICATES FEW OR NO CLOUDS BELOW 12,000 FEET WITH NO
SIGNIFICANT WEATHER AND/OR OBSTRUCTIONS TO VISIBILITY.

OHZ001>008-015>018-024>027-034-035-043-044-042000-
   NORTHWEST OHIO

CITY           SKY/WX    TMP DP  RH WIND       PRES   REMARKS
DEFIANCE       CLOUDY    40  29  64 SE8       30.05F
FINDLAY        CLOUDY    40  27  59 SE12      30.03F
TOLEDO EXPRESS CLOUDY    37  29  72 VRB7      30.05F
TOLEDO EXEC    CLOUDY    39  29  67 SE10      30.07F
LIMA           CLOUDY    40  31  70 SE9       30.01F
$$

OHZ009>014-019>023-028>033-038-089-042000-
   NORTHEAST OHIO

CITY           SKY/WX    TMP DP  RH WIND       PRES   REMARKS
CLE-HOPKINS    CLOUDY    41  25  53 SE12      30.11F
CLE-LAKEFRONT  CLOUDY    41  26  55 SE12      30.10F
CUY CO. ARPT   CLOUDY    41  30  65 S12       30.11F
LORAIN-ELYRIA  CLOUDY    39  26  59 SE9       30.09F
ASHTABULA      CLOUDY    40  29  64 SE7       30.13F
AKRON-CANTON   CLOUDY    38  26  62 SE12      30.09F
WOOSTER        CLOUDY    38  27  64 SE13      30.08F
MANSFIELD      CLOUDY    37  27  67 SE14      30.05F
YOUNGSTOWN     CLOUDY    39  28  64 SE6       30.12F
$$

OHZ042-051>053-060>062-070>072-077>081-042000-
  SOUTHWEST OHIO

CITY           SKY/WX    TMP DP  RH WIND       PRES   REMARKS
CINC-COVINGTON CLOUDY    44  32  62 E9        29.95F
CINC-LUNKEN    CLOUDY    45  32  60 E7        29.99F
HAMILTON       CLOUDY    43  29  57 E10       29.99F
DAYTON         CLOUDY    39  29  67 SE13      30.00F
WRIGHT-PAT AFB PTSUNNY   41  31  67 E13G20    30.00F
DAYTON GENERAL CLOUDY    40  28  62 E12       29.99F
WILMINGTON     CLOUDY    40  30  67 E12       29.99F
$$

OHZ036-037-039>041-045>050-054>059-063>069-073>076-082>088-042000-
  CENTRAL AND SOUTHEAST OHIO

CITY           SKY/WX    TMP DP  RH WIND       PRES   REMARKS
COLUMBUS       CLOUDY    41  30  65 E10       30.04F
OSU AIRPORT    CLOUDY    40  29  64 SE12      30.03F
BOLTON FIELD   MOSUNNY   39  30  70 E13       30.04F
RICKENBACK AFB PTSUNNY   41  29  63 E10       30.03F
NEWARK         CLOUDY    41  27  57 SE10      30.05F
MARION         CLOUDY    40  28  62 SE9       30.05F
LANCASTER      CLOUDY    42  29  59 E9        30.05F
ZANESVILLE     CLOUDY    41  27  57 SE8       30.07F
NEW PHILLY     CLOUDY    41  27  57 E9        30.10F
$$




USA.gov is the U.S. government's official web portal to all federal, state and local government web resources and services.